Temp
92 90 80 73 73 73 73 74 74 74 74 74 75 74 74 74 74 75 75 74 75 75 74 74 74 73 73 71 71 71 81 89
91 90 89 86 83 72 72 72 72 73 73 73 73 74 74 73 73 73 73 74 73 74 74 73 73 72 72 71 70 71 81 87
92 89 90 88 89 83 73 72 72 72 73 72 73 83 85 83 78 75 73 72 72 73 72 72 72 72 71 71 70 83 87 88
91 90 89 90 92 89 87 88 86 84 85 85 83 85 87 88 82 73 72 71 71 71 71 71 71 83 81 71 80 85 88 90
82 81 84 88 91 93 92 92 91 83 83 82 85 81 82 87 87 80 82 73 82 78 79 80 79 81 84 82 85 85 88 91
76 77 76 76 83 81 86 85 78 80 79 80 80 79 79 81 79 79 79 79 79 82 84 82 81 84 85 86 86 87 90 91
71 73 73 75 74 71 75 76 76 73 73 73 74 75 76 78 77 79 79 79 80 79 79 80 81 82 82 82 83 85 86 88
70 71 70 73 72 69 69 68 67 67 66 65 65 64 64 68 75 76 77 76 78 78 79 80 79 77 77 78 82 84 83 81
67 68 69 70 72 72 71 69 68 65 64 64 65 64 63 64 66 72 74 74 75 74 72 75 77 77 75 76 77 80 79 78
68 68 67 68 69 72 72 72 70 68 67 67 65 66 67 65 66 68 67 65 70 69 67 66 67 70 70 75 77 77 77 77
66 66 66 67 69 72 73 72 70 70 72 70 67 68 68 69 72 74 72 71 69 71 71 71 71 71 68 71 75 75 75 80
67 65 64 67 69 70 72 71 72 73 70 68 66 67 66 67 71 70 71 73 73 70 68 70 73 73 73 73 75 75 74 74
64 62 62 65 67 66 67 66 69 70 70 67 66 64 64 65 67 67 69 69 68 69 71 66 65 71 65 67 72 74 72 74
62 62 61 61 64 65 65 66 68 69 68 67 65 63 63 64 62 63 65 65 65 67 67 67 67 68 61 62 61 70 71 71
62 62 61 60 60 63 63 65 66 65 64 65 63 63 62 61 61 61 60 61 62 63 64 64 64 68 65 59 58 59 67 75
61 61 60 60 59 60 58 59 58 60 61 62 61 62 61 61 59 58 57 58 57 59 63 60 61 61 66 67 63 62 59 63
60 61 59 59 58 57 57 55 57 59 58 56 58 59 59 60 57 55 54 54 54 53 54 55 56 56 59 63 65 65 63 61
59 59 58 57 56 55 54 52 52 52 52 52 54 55 56 55 53 51 49 50 50 50 50 50 50 51 53 56 58 59 61 63
58 57 54 55 54 53 52 51 50 50 49 48 47 48 49 48 47 46 47 47 47 47 47 47 48 48 49 49 53 57 63 65
56 55 53 52 51 51 51 50 49 49 47 46 46 44 45 45 45 45 45 46 46 45 45 45 46 47 47 48 49 51 54 59
MSLP
1008.62 1008.98 1009.91 1010.41 1010.59 1010.78 1011.04 1011.16 1011.32 1011.38 1011.56 1011.81 1011.92 1012.08 1012.20 1012.33 1012.56 1012.81 1012.89 1013.05 1013.05 1013.23 1013.51 1013.63 1013.88 1014.01 1014.26 1014.48 1014.69 1014.69 1014.13 1012.76
1008.85 1009.01 1009.29 1009.66 1010.05 1010.64 1010.88 1011.08 1011.24 1011.39 1011.54 1011.66 1011.70 1011.86 1011.93 1012.19 1012.44 1012.68 1012.68 1012.98 1013.04 1013.10 1013.26 1013.61 1013.79 1013.87 1014.11 1014.29 1014.43 1014.58 1014.32 1013.25
1008.82 1009.08 1009.03 1009.43 1009.38 1009.71 1010.64 1010.94 1011.07 1011.21 1011.37 1011.48 1011.73 1011.28 1011.14 1011.42 1011.65 1011.97 1012.29 1012.71 1012.97 1013.00 1013.15 1013.18 1013.60 1013.85 1013.98 1014.11 1014.39 1013.83 1013.12 1012.85
1009.10 1009.12 1009.16 1009.14 1009.05 1009.27 1009.65 1009.70 1010.09 1010.28 1010.36 1010.36 1010.86 1010.71 1010.51 1010.32 1010.64 1011.47 1011.97 1012.20 1012.62 1012.84 1012.96 1013.04 1013.34 1012.88 1013.01 1013.52 1013.47 1012.91 1012.51 1011.88
1010.93 1010.76 1010.05 1009.43 1008.84 1008.38 1008.63 1008.72 1008.94 1009.73 1010.04 1010.16 1010.11 1010.39 1010.33 1010.09 1010.02 1010.92 1011.21 1011.83 1011.67 1012.18 1012.30 1012.48 1012.31 1012.28 1011.76 1012.18 1012.06 1012.20 1011.81 1011.45
1012.56 1012.20 1011.66 1011.20 1010.24 1009.75 1009.20 1009.83 1010.65 1010.65 1010.70 1010.64 1010.41 1010.47 1010.63 1010.43 1010.35 1010.25 1010.69 1010.89 1011.01 1010.68 1010.60 1011.01 1011.37 1011.24 1011.16 1010.89 1011.25 1011.32 1011.02 1010.85
1013.42 1013.20 1012.76 1012.14 1011.88 1011.63 1011.11 1011.09 1011.13 1011.40 1011.46 1011.39 1011.17 1011.04 1010.98 1010.66 1010.67 1010.42 1010.52 1010.52 1010.36 1010.29 1010.17 1010.14 1010.18 1010.20 1010.21 1010.39 1010.71 1011.04 1011.02 1010.95
1013.92 1013.73 1013.52 1012.84 1012.67 1012.79 1012.57 1012.51 1012.50 1012.42 1012.49 1012.57 1012.32 1012.22 1012.12 1011.68 1011.01 1010.78 1010.55 1010.43 1010.12 1009.77 1009.87 1009.91 1010.25 1010.52 1010.56 1010.47 1010.31 1010.43 1010.83 1011.13
1014.52 1014.30 1014.17 1013.57 1013.05 1012.91 1012.87 1012.95 1013.04 1013.18 1013.25 1013.16 1012.88 1012.76 1012.52 1012.35 1011.87 1011.18 1010.98 1010.42 1010.25 1010.16 1010.13 1008.12 1008.79 1010.16 1010.43 1010.25 1010.45 1010.43 1010.65 1010.83
1014.95 1014.84 1014.56 1014.04 1013.69 1013.26 1013.13 1013.10 1013.16 1013.23 1013.26 1013.22 1013.25 1012.96 1012.64 1012.45 1012.04 1011.63 1011.68 1011.29 1010.67 1010.46 1009.79 1007.26 1009.02 1010.28 1009.62 1010.41 1010.10 1010.35 1010.41 1010.29
1015.25 1015.43 1015.04 1014.42 1013.97 1013.38 1013.25 1013.31 1013.37 1013.23 1013.13 1013.34 1013.56 1013.08 1012.94 1012.59 1011.86 1011.48 1011.32 1010.95 1011.01 1010.91 1010.38 1010.26 1010.42 1010.37 1010.38 1010.29 1010.01 1009.73 1009.98 1009.80
1015.68 1015.84 1015.65 1014.96 1014.49 1014.04 1013.70 1013.75 1013.48 1013.35 1013.68 1014.07 1014.13 1013.87 1013.63 1013.20 1012.40 1012.10 1011.77 1011.10 1010.69 1011.17 1011.31 1010.93 1010.23 1010.06 1010.06 1009.79 1009.59 1009.26 1009.57 1009.55
1016.40 1016.38 1016.32 1015.79 1015.14 1014.77 1014.43 1014.28 1013.87 1013.86 1013.98 1014.43 1014.48 1014.46 1014.18 1013.74 1013.16 1012.79 1012.34 1011.84 1011.53 1011.14 1010.79 1011.06 1011.01 1010.55 1010.29 1009.77 1009.28 1008.76 1009.07 1009.06
1016.85 1016.78 1016.80 1016.69 1016.28 1015.87 1015.53 1014.94 1014.56 1014.35 1014.51 1014.62 1014.76 1014.84 1014.68 1014.31 1014.18 1013.68 1013.30 1012.80 1012.21 1011.58 1011.26 1010.84 1010.66 1010.61 1010.38 1009.92 1009.01 1008.12 1008.15 1008.36
1017.14 1017.26 1017.33 1017.44 1017.20 1016.51 1016.17 1015.55 1015.14 1015.01 1015.14 1014.90 1015.28 1015.14 1015.15 1015.00 1014.79 1014.50 1014.33 1013.95 1013.10 1012.68 1012.08 1011.57 1010.76 1010.26 1010.67 1010.73 1009.67 1008.47 1007.87 1007.10
1017.76 1017.81 1017.85 1017.93 1017.77 1017.28 1016.94 1016.46 1016.13 1016.18 1015.91 1015.74 1015.78 1015.48 1015.47 1015.16 1015.04 1015.16 1015.03 1014.60 1014.12 1013.61 1013.06 1012.88 1012.25 1010.96 1010.30 1010.27 1010.23 1009.73 1008.76 1007.57
1018.05 1018.03 1018.26 1018.37 1018.31 1018.20 1017.85 1017.64 1017.42 1016.98 1016.76 1016.73 1016.14 1015.94 1015.78 1015.58 1015.61 1015.74 1015.64 1015.49 1015.00 1014.78 1014.31 1013.86 1013.41 1012.76 1011.77 1010.68 1009.91 1009.58 1009.28 1008.21
1018.24 1018.27 1018.61 1018.85 1018.85 1018.79 1018.66 1018.62 1018.31 1017.90 1017.62 1017.44 1017.16 1016.78 1016.48 1016.46 1016.66 1016.67 1016.48 1016.17 1015.70 1015.32 1014.87 1014.45 1014.04 1013.55 1012.93 1012.10 1011.21 1010.28 1009.25 1008.24
1018.41 1018.71 1019.00 1019.21 1019.23 1019.27 1019.45 1019.40 1019.13 1018.76 1018.77 1018.74 1018.46 1017.99 1017.67 1017.73 1017.61 1017.52 1016.91 1016.59 1016.28 1015.77 1015.06 1014.64 1013.95 1013.74 1013.26 1012.60 1012.04 1010.82 1009.95 1008.65
1018.86 1019.24 1019.64 1019.79 1019.85 1019.89 1019.94 1019.83 1019.88 1019.75 1019.82 1019.69 1019.21 1019.17 1018.79 1018.64 1018.36 1017.88 1017.25 1016.79 1016.30 1015.74 1015.22 1014.80 1014.20 1013.72 1013.08 1012.73 1011.93 1011.35 1010.99 1009.80
Wind_Speed
2 7 10 9 8 8 7 6 7 7 8 8 9 9 9 11 11 10 11 11 11 10 8 9 9 8 8 7 6 7 10 11
3 1 5 9 9 9 7 6 5 6 8 9 9 9 10 10 9 11 12 10 10 10 10 8 9 10 9 8 7 6 11 12
2 3 3 5 6 9 9 8 7 7 8 10 8 10 13 14 13 10 13 9 10 10 10 10 9 8 9 8 7 8 11 9
10 5 5 4 7 7 7 8 9 9 10 10 10 11 12 12 14 16 13 11 10 10 10 9 9 10 10 11 8 10 9 10
15 15 14 8 8 4 5 5 2 1 5 6 8 7 8 8 7 7 11 12 11 12 11 10 12 10 10 10 12 10 8 8
13 14 12 14 8 10 8 5 5 4 4 5 7 5 7 8 8 8 9 7 11 11 10 13 14 14 14 9 6 7 7 7
12 12 11 11 9 8 9 7 3 4 5 7 6 7 7 8 8 8 8 9 11 11 11 11 13 13 10 7 8 10 10 7
13 13 12 10 8 9 7 8 8 7 7 8 9 7 6 8 8 9 8 8 10 12 12 13 11 9 10 10 12 9 7 8
13 12 13 11 9 7 6 7 6 6 6 8 9 7 7 8 7 8 8 9 12 11 11 13 8 9 11 10 8 10 9 11
11 11 12 11 10 8 7 7 5 5 4 5 9 8 8 7 6 5 6 6 8 5 3 6 8 7 7 10 8 9 11 9
13 13 13 12 10 6 5 6 4 5 7 8 11 10 12 10 8 8 10 6 5 5 5 5 7 7 8 10 10 10 11 10
12 12 14 11 8 7 5 6 6 6 7 8 11 10 12 11 9 9 10 9 7 7 7 9 9 9 9 9 11 10 8 8
13 13 14 11 9 9 8 7 6 7 6 9 10 11 12 12 9 10 10 10 11 11 9 6 7 8 6 8 11 11 10 10
12 13 14 12 10 9 8 7 7 6 7 8 10 12 12 11 11 10 12 10 12 11 11 9 8 7 4 4 7 10 11 12
10 11 12 11 12 8 8 8 8 8 9 9 12 12 12 11 12 11 11 10 10 11 11 13 11 8 8 4 3 7 8 9
9 10 11 11 13 11 12 9 9 9 8 9 11 12 12 12 12 12 12 10 11 10 11 11 12 12 9 8 10 7 8 12
7 8 10 11 11 11 9 11 9 9 9 13 12 11 12 12 12 13 13 11 11 12 12 12 10 11 11 11 11 10 12 9
8 9 11 11 11 12 12 12 11 10 11 10 10 10 10 13 15 13 12 12 13 12 13 13 12 11 10 12 12 10 10 11
7 9 11 11 11 11 12 11 11 12 12 10 13 10 10 13 15 13 11 12 13 12 12 13 12 11 12 9 11 13 13 12
8 9 9 10 10 10 10 11 8 8 10 9 9 9 10 14 13 13 14 14 13 12 9 10 12 10 14 11 10 10 12 14
Wind_Direction
78 164 174 179 187 189 200 205 208 204 203 206 204 204 211 197 200 208 209 211 203 204 205 203 204 208 209 212 229 254 265 280
336 220 200 186 189 193 194 201 211 218 223 215 209 214 215 206 210 209 225 217 216 208 203 208 210 209 212 209 206 233 262 267
358 305 256 245 230 170 183 206 208 220 223 219 218 229 216 219 213 214 207 209 218 214 210 201 213 217 216 204 205 235 231 226
1 350 315 267 254 172 210 202 211 214 223 224 216 233 236 229 210 193 198 202 216 215 213 201 206 236 205 195 219 235 242 256
7 354 342 310 287 244 221 222 258 167 252 234 251 256 263 239 234 196 208 203 220 211 213 221 219 227 245 188 208 220 235 249
2 359 353 358 330 344 6 0 13 331 321 298 283 273 270 261 268 214 222 231 216 223 211 214 217 225 235 253 248 258 241 236
11 11 3 360 8 5 4 3 25 4 2 357 339 317 289 278 273 266 240 227 224 225 228 220 214 219 229 233 237 231 241 263
14 15 11 9 22 25 21 27 19 27 31 19 16 18 8 343 294 270 261 258 244 237 224 218 220 226 230 235 237 237 250 281
21 16 11 12 16 20 41 37 40 34 31 28 22 18 3 352 334 328 307 287 274 272 279 236 214 221 230 228 241 239 228 225
36 25 20 15 12 19 23 26 44 47 41 37 15 13 1 342 318 328 323 310 323 290 273 323 310 291 252 245 230 235 237 242
35 29 19 16 17 0 27 28 27 25 22 20 8 7 357 343 328 334 336 310 312 312 293 230 251 249 250 249 240 232 234 235
39 32 21 15 19 10 19 10 10 8 16 16 3 1 355 342 333 344 327 322 325 332 315 331 297 265 254 261 258 256 245 245
32 30 27 16 19 13 1 354 5 354 12 5 2 358 356 347 347 335 332 331 329 321 313 312 306 302 283 262 255 248 249 248
28 27 27 23 7 8 356 350 351 352 3 349 11 354 354 346 345 338 342 329 323 321 322 309 293 290 289 292 271 261 230 238
25 22 19 20 5 9 1 355 351 5 348 352 354 351 349 347 342 342 341 327 327 327 315 312 304 294 295 292 280 248 269 242
30 30 25 22 15 7 360 357 349 348 340 350 334 347 343 346 347 346 333 328 323 324 327 326 312 296 285 257 257 277 272 278
37 36 35 29 24 18 7 4 348 345 342 339 336 347 338 342 350 345 335 333 324 314 316 320 314 302 295 300 292 293 287 269
42 35 36 29 24 20 19 9 352 348 356 341 349 336 344 345 353 338 336 325 326 320 310 301 294 292 292 292 286 274 278 289
44 34 35 27 24 23 20 10 8 352 359 348 340 344 346 347 339 337 328 325 316 314 310 304 301 287 285 289 291 286 288 280
48 41 37 32 30 23 24 20 15 3 1 350 351 345 341 337 337 332 331 325 321 316 312 305 297 289 287 282 283 279 273 280